This is the latest recevied weather packets stored in our database for station/object SV9TNF-52. If no packets are shown the sender has not sent any weather packets the latest 10 day(s).
| Time | Temp. | Humidity | Pressure | Rain* | Wind** | Luminosity | Snow |
|---|---|---|---|---|---|---|---|
| 1788359928 | 30.56° C | 49% | 1019.3 hPa | 0 mm | 0.45 m/s, 66° | - | - |
| 1788359627 | 31.67° C | 48% | 1019.3 hPa | 0 mm | 0.45 m/s, 111° | - | - |
| 1788359327 | 31.67° C | 47% | 1019.3 hPa | 0 mm | 0.89 m/s, 14° | - | - |
| 1788359027 | 31.67° C | 49% | 1019.3 hPa | 0 mm | 1.34 m/s, 274° | - | - |
| 1788358727 | 31.67° C | 48% | 1019.3 hPa | 0 mm | 1.34 m/s, 354° | - | - |
| 1788358428 | 31.11° C | 47% | 1019.3 hPa | 0 mm | 2.68 m/s, 93° | - | - |
| 1788358127 | 31.11° C | 48% | 1019.6 hPa | 0 mm | 1.34 m/s, 344° | - | - |
| 1788357827 | 31.67° C | 48% | 1019.6 hPa | 0 mm | 0.45 m/s, 102° | - | - |
| 1788357530 | 31.67° C | 45% | 1019.6 hPa | 0 mm | 1.34 m/s, 91° | - | - |
| 1788357226 | 31.11° C | 47% | 1019.6 hPa | 0 mm | 1.34 m/s, 90° | - | - |
| 1788356927 | 31.67° C | 46% | 1019.6 hPa | 0 mm | 0 m/s | - | - |
| 1788356627 | 30.56° C | 47% | 1019.6 hPa | 0 mm | 0.89 m/s, 80° | - | - |
| 1788356327 | 31.11° C | 45% | 1019.6 hPa | 0 mm | 2.24 m/s, 66° | - | - |
| 1788356026 | 31.67° C | 45% | 1019.6 hPa | 0 mm | 3.13 m/s, 280° | - | - |
| 1788355726 | 31.11° C | 45% | 1019.6 hPa | 0 mm | 3.58 m/s, 103° | - | - |
| 1788355426 | 31.11° C | 46% | 1019.6 hPa | 0 mm | 2.68 m/s, 56° | - | - |
| 1788355126 | 31.11° C | 47% | 1019.6 hPa | 0 mm | 1.79 m/s, 29° | - | - |
| 1788354826 | 31.67° C | 46% | 1019.6 hPa | 0 mm | 3.13 m/s, 86° | - | - |
| 1788354526 | 31.67° C | 45% | 1020 hPa | 0 mm | 4.47 m/s, 4° | - | - |
| 1788354226 | 32.22° C | 46% | 1020 hPa | 0 mm | 4.92 m/s, 357° | - | - |
| 1788353925 | 32.78° C | 45% | 1020 hPa | 0 mm | 1.34 m/s, 82° | - | - |
| 1788353625 | 32.78° C | 45% | 1020 hPa | 0 mm | 0.89 m/s, 83° | - | - |
| 1788353325 | 32.78° C | 45% | 1020 hPa | 0 mm | 2.68 m/s, 275° | - | - |
| 1788353025 | 32.22° C | 46% | 1020 hPa | 0 mm | 4.02 m/s, 278° | - | - |
| 1788352725 | 32.78° C | 45% | 1020 hPa | 0 mm | 2.68 m/s, 73° | - | - |
* Rain latest hour (hover to see other rain measurements)
** Current wind speed in m/s (hover to see current wind gust speed)